FW4761 Weather Reports


Display with metric or nautical units.
time (UTC)temp
F
wind
direction
speed
MPH
gust
MPH
rain 1hr
in
rain 24hr
in
rain mn
in
humidity
%
barometer
mb
20260510191111 66 17 8.0 16.0 0.01 0.30 0.30 86 982.5
20260510190605 66 53 7.0 16.0 0.02 0.30 0.30 87 982.5
20260510190059 66 13 7.0 13.0 0.02 0.30 0.30 87 982.6
20260510185553 65 49 7.0 13.0 0.02 0.30 0.30 87 982.4
20260510185047 65 10 8.0 14.0 0.02 0.30 0.30 87 982.5
20260510184034 65 54 8.0 16.0 0.02 0.30 0.30 87 982.2
20260510183528 65 65 9.0 16.0 0.02 0.30 0.30 87 982.0
20260510183022 65 34 9.0 16.0 0.02 0.30 0.30 87 982.1
20260510182517 65 0 9.0 14.0 0.02 0.30 0.30 87 982.0
20260510182011 65 9 7.0 14.0 0.02 0.30 0.30 87 982.3
20260510181507 65 11 7.0 14.0 0.02 0.30 0.30 86 982.3
20260510181007 65 32 7.0 14.0 0.01 0.29 0.29 86 982.2
20260510180506 65 36 8.0 15.0 0.00 0.28 0.28 86 982.2
20260510180005 66 0 7.0 15.0 0.00 0.28 0.28 86 982.8
20260510175503 66 13 4.0 12.0 0.00 0.28 0.28 86 982.3
20260510175003 66 49 3.0 10.0 0.00 0.28 0.28 86 981.8
20260510174502 66 65 4.0 10.0 0.00 0.28 0.28 86 981.7
20260510174004 65 65 5.0 11.0 0.00 0.28 0.28 85 982.0
20260510173503 66 44 4.0 11.0 0.00 0.28 0.28 86 981.9
20260510172502 66 64 5.0 11.0 0.00 0.28 0.28 86 981.9
20260510172003 65 82 4.0 11.0 0.00 0.28 0.28 86 981.8
20260510171003 66 74 6.0 15.0 0.04 0.28 0.28 87 981.2
20260510170503 65 59 7.0 15.0 0.04 0.28 0.28 87 981.0
20260510165959 65 78 6.0 15.0 0.05 0.28 0.28 88 981.1
20260510164958 64 117 4.0 13.0 0.08 0.28 0.28 88 981.1
20260510164459 64 137 4.0 12.0 0.10 0.28 0.28 89 981.2
20260510163459 63 111 3.0 10.0 0.20 0.28 0.28 88 981.3
20260510162958 63 95 5.0 15.0 0.23 0.28 0.28 88 981.1
20260510162459 63 90 6.0 15.0 0.27 0.28 0.28 88 981.0
20260510161959 62 97 7.0 14.0 0.27 0.28 0.28 88 981.0
20260510161455 62 103 6.0 13.0 0.25 0.26 0.27 88 980.9
20260510160955 62 87 5.0 14.0 0.23 0.24 0.24 87 981.2
20260510160454 62 102 5.0 14.0 0.23 0.24 0.24 87 981.3
20260510155454 62 82 8.0 17.0 0.20 0.21 0.22 86 981.2
20260510154954 62 59 8.0 19.0 0.20 0.20 0.20 85 981.3
20260510154455 62 59 8.0 19.0 0.18 0.18 0.18 85 981.2
20260510153454 62 111 13.0 23.0 0.08 0.08 0.09 83 981.2
20260510152948 63 17 13.0 23.0 0.03 0.03 0.04 82 982.0
20260510145924 69 51 18.0 32.0 0.01 0.01 0.01 70 980.2
20260510144925 74 320 6.0 25.0 0.00 0.00 0.00 66 980.6
20260510143928 74 169 8.0 15.0 0.00 0.00 0.00 67 978.0
20260510142924 73 180 9.0 17.0 0.00 0.00 0.00 69 977.7
20260510141924 73 180 10.0 15.0 0.00 0.00 0.00 69 977.9
20260510141422 72 161 11.0 20.0 0.00 0.00 0.00 70 978.1
20260510140923 71 167 12.0 20.0 0.00 0.00 0.00 70 978.0
20260510140422 71 159 12.0 18.0 0.00 0.00 0.00 70 978.1
20260510135423 71 139 9.0 17.0 0.00 0.00 0.00 71 978.1
20260510134926 71 159 8.0 17.0 0.00 0.00 0.00 72 978.3
20260510133911 70 175 9.0 15.0 0.00 0.00 0.00 73 978.2
20260510133405 70 155 9.0 14.0 0.00 0.00 0.00 74 978.1
20260510132900 69 159 8.0 14.0 0.00 0.00 0.00 75 978.2
20260510132353 69 145 8.0 14.0 0.00 0.00 0.00 75 978.3
20260510131847 69 141 7.0 14.0 0.00 0.00 0.00 76 978.2
20260510131341 69 142 7.0 15.0 0.00 0.00 0.00 76 978.3
20260510130835 69 154 10.0 15.0 0.00 0.00 0.00 77 978.3
20260510130329 69 152 8.0 15.0 0.00 0.00 0.00 76 978.3
20260510125823 69 133 7.0 14.0 0.00 0.00 0.00 76 978.3
20260510125318 68 146 7.0 14.0 0.00 0.00 0.00 77 978.6
20260510124811 68 148 6.0 12.0 0.00 0.00 0.00 77 978.5
20260510124305 68 153 6.0 12.0 0.00 0.00 0.00 77 978.5
20260510123253 68 165 5.0 11.0 0.00 0.00 0.00 77 978.5
20260510122747 68 144 4.0 9.0 0.00 0.00 0.00 78 978.5
20260510122241 68 183 5.0 9.0 0.00 0.00 0.00 78 978.5
20260510121735 67 139 6.0 13.0 0.00 0.00 0.00 78 978.5
20260510121229 67 140 7.0 13.0 0.00 0.00 0.00 78 978.2
20260510120723 67 144 7.0 12.0 0.00 0.00 0.00 79 978.2
20260510120217 67 134 6.0 12.0 0.00 0.00 0.00 80 978.0
20260510115711 67 159 5.0 11.0 0.00 0.00 0.00 80 977.9
20260510115206 67 153 6.0 11.0 0.00 0.00 0.00 80 977.9
20260510114700 67 152 6.0 13.0 0.00 0.00 0.00 80 977.8
20260510114156 67 133 6.0 13.0 0.00 0.00 0.00 80 977.8
20260510113648 67 169 5.0 12.0 0.00 0.00 0.00 80 977.9
20260510113142 67 166 4.0 12.0 0.00 0.00 0.00 80 978.0
20260510112635 67 144 5.0 12.0 0.00 0.00 0.00 79 977.9
20260510112130 67 140 5.0 12.0 0.00 0.00 0.00 79 977.9
20260510111624 67 143 3.0 9.0 0.00 0.00 0.00 79 977.9
20260510111118 67 128 4.0 9.0 0.00 0.00 0.00 79 977.8
20260510110611 67 126 5.0 10.0 0.00 0.00 0.00 78 977.7
20260510110106 67 132 4.0 10.0 0.00 0.00 0.00 78 977.6
20260510105559 67 119 3.0 11.0 0.00 0.00 0.00 78 977.7
20260510105053 66 134 3.0 11.0 0.00 0.00 0.00 78 977.6
20260510104548 67 152 3.0 7.0 0.00 0.00 0.00 78 977.6
20260510104042 66 138 4.0 11.0 0.00 0.00 0.00 78 977.8
20260510103536 67 117 4.0 11.0 0.00 0.00 0.00 77 977.8
20260510103029 67 128 3.0 10.0 0.00 0.00 0.00 77 977.8
20260510102523 67 136 3.0 11.0 0.00 0.00 0.00 77 977.7
20260510102018 67 106 3.0 11.0 0.00 0.00 0.00 76 977.6
20260510101512 67 102 3.0 10.0 0.00 0.00 0.00 75 977.7
20260510101006 67 148 3.0 11.0 0.00 0.00 0.00 75 977.8
20260510100500 67 136 3.0 11.0 0.00 0.00 0.00 75 977.7
20260510095954 67 145 2.0 7.0 0.00 0.00 0.00 75 977.8
20260510095448 67 135 1.0 5.0 0.00 0.00 0.00 76 977.7
20260510094942 67 105 1.0 4.0 0.00 0.00 0.00 76 977.5
20260510094436 67 118 1.0 4.0 0.00 0.00 0.00 76 977.6
20260510092934 67 149 1.0 8.0 0.00 0.00 0.00 76 977.2
20260510091934 67 156 3.0 9.0 0.00 0.00 0.00 76 977.0
20260510090434 66 88 4.0 13.0 0.00 0.00 0.00 78 977.0
20260510085932 66 91 4.0 13.0 0.00 0.00 0.00 79 977.2
20260510085436 65 97 3.0 8.0 0.00 0.00 0.00 79 977.3
20260510084934 65 110 3.0 7.0 0.00 0.00 0.00 79 977.4
20260510084433 66 101 5.0 10.0 0.00 0.00 0.00 79 977.6
20260510083933 66 105 6.0 14.0 0.00 0.00 0.00 78 977.4
20260510083431 66 90 5.0 14.0 0.00 0.00 0.00 78 977.2
20260510082932 66 94 6.0 12.0 0.00 0.00 0.00 77 977.0
20260510082428 66 81 5.0 12.0 0.00 0.00 0.00 77 976.7
20260510081927 67 114 4.0 14.0 0.00 0.00 0.00 76 976.7
20260510081428 67 92 5.0 14.0 0.00 0.00 0.00 76 976.8
20260510080427 68 45 5.0 15.0 0.00 0.00 0.00 76 976.7
20260510075428 69 51 7.0 14.0 0.00 0.00 0.00 75 977.0
20260510074928 69 29 8.0 19.0 0.00 0.00 0.00 77 976.7
20260510074428 69 139 9.0 18.0 0.00 0.00 0.00 78 975.7
20260510073923 70 103 10.0 21.0 0.00 0.00 0.00 78 976.8
20260510073423 70 54 11.0 21.0 0.00 0.00 0.00 79 978.1
20260510072924 69 22 11.0 18.0 0.00 0.00 0.00 79 978.2
20260510072424 69 17 10.0 19.0 0.00 0.00 0.00 80 978.2
20260510071923 69 9 10.0 19.0 0.00 0.00 0.00 81 978.2
20260510071424 69 39 10.0 19.0 0.00 0.00 0.00 81 977.9
20260510070924 69 47 14.0 27.0 0.00 0.00 0.00 81 977.6
20260510065923 70 23 8.0 24.0 0.00 0.00 0.00 81 978.2
20260510064911 70 95 2.0 10.0 0.00 0.00 0.00 82 975.6
20260510064405 70 92 1.0 10.0 0.00 0.00 0.00 82 975.1
20260510063905 70 159 1.0 9.0 0.00 0.00 0.00 82 974.9
20260510063403 70 103 3.0 12.0 0.00 0.00 0.00 81 974.7
20260510062901 71 128 5.0 12.0 0.00 0.00 0.00 81 974.7
20260510062401 71 82 5.0 12.0 0.00 0.00 0.00 81 974.7
20260510061901 71 119 5.0 12.0 0.00 0.00 0.00 80 974.6
20260510061359 71 109 4.0 12.0 0.00 0.00 0.00 80 974.7
20260510060902 71 67 6.0 13.0 0.00 0.00 0.00 79 974.8
20260510060359 72 82 8.0 17.0 0.00 0.00 0.00 78 974.9
20260510055900 72 96 7.0 17.0 0.00 0.00 0.00 77 975.1
20260510054857 73 95 5.0 15.0 0.00 0.00 0.00 76 975.2
20260510054357 73 83 5.0 13.0 0.00 0.00 0.00 75 975.4
20260510053855 74 105 6.0 15.0 0.00 0.00 0.00 74 975.3
20260510052356 75 58 8.0 17.0 0.00 0.00 0.00 72 976.0
20260510051855 76 93 8.0 17.0 0.00 0.00 0.00 70 976.0
20260510051354 76 92 8.0 17.0 0.00 0.00 0.00 69 976.7
20260510050848 77 63 8.0 27.0 0.00 0.00 0.00 69 977.6
20260510050341 77 46 10.0 27.0 0.00 0.00 0.00 68 977.9
20260510045329 75 67 16.0 33.0 0.00 0.00 0.00 71 976.8
20260510044823 74 340 14.0 33.0 0.00 0.00 0.00 73 976.6
20260510044317 74 40 9.0 23.0 0.00 0.00 0.00 74 976.8
20260510043812 73 339 4.0 11.0 0.00 0.00 0.00 74 975.2
20260510043306 73 121 5.0 12.0 0.00 0.00 0.00 73 973.6
20260510042254 74 146 6.0 12.0 0.00 0.00 0.00 73 973.1
20260510041748 74 136 4.0 9.0 0.00 0.00 0.00 73 973.2
20260510041241 74 150 5.0 11.0 0.00 0.00 0.00 73 973.4
20260510040230 74 128 6.0 13.0 0.00 0.00 0.00 72 972.9
20260510035217 74 144 7.0 12.0 0.00 0.00 0.00 71 972.9
20260510034206 74 141 8.0 14.0 0.00 0.00 0.00 71 973.1
20260510033700 74 145 8.0 13.0 0.00 0.00 0.00 71 973.1
20260510032648 75 132 7.0 11.0 0.00 0.00 0.00 71 973.3
20260510032142 75 123 7.0 12.0 0.00 0.00 0.00 71 973.3
20260510031635 75 133 7.0 12.0 0.00 0.00 0.00 71 973.2
20260510031133 75 138 7.0 12.0 0.00 0.00 0.00 71 973.2
20260510030634 75 150 7.0 12.0 0.00 0.00 0.00 72 973.2
20260510030134 75 134 7.0 13.0 0.00 0.00 0.00 72 973.3
20260510025633 75 135 8.0 13.0 0.00 0.00 0.00 71 973.4
20260510025134 76 141 8.0 13.0 0.00 0.00 0.00 71 973.4
20260510024134 76 135 7.0 13.0 0.00 0.00 0.00 71 973.2
20260510023634 76 150 6.0 11.0 0.00 0.00 0.00 71 973.4
20260510023134 76 136 6.0 13.0 0.00 0.00 0.00 71 973.2
20260510022634 76 129 6.0 13.0 0.00 0.00 0.00 71 973.2
20260510022134 77 142 6.0 11.0 0.00 0.00 0.00 70 973.1
20260510021634 77 0 7.0 11.0 0.00 0.00 0.00 69 973.0
20260510021134 77 161 6.0 11.0 0.00 0.00 0.00 69 973.1
20260510020634 78 132 5.0 11.0 0.00 0.00 0.00 68 973.0
20260510020134 78 145 6.0 11.0 0.00 0.00 0.00 68 972.9
20260510015634 78 117 6.0 11.0 0.00 0.00 0.00 67 972.9
20260510015134 78 148 5.0 10.0 0.00 0.00 0.00 67 972.9
20260510014628 79 136 5.0 13.0 0.00 0.00 0.00 67 972.9
20260510014121 79 142 5.0 13.0 0.00 0.00 0.00 66 972.9
20260510013616 79 153 5.0 12.0 0.00 0.00 0.00 66 972.9
20260510012604 80 153 5.0 10.0 0.00 0.00 0.00 65 973.0
20260510012058 80 149 4.0 10.0 0.00 0.00 0.00 63 972.9
20260510011046 81 157 2.0 5.0 0.00 0.00 0.00 59 972.9
20260510010539 81 140 3.0 7.0 0.00 0.00 0.00 58 972.8
20260510010034 82 136 3.0 7.0 0.00 0.00 0.00 56 972.7
20260510005531 82 140 2.0 5.0 0.00 0.00 0.00 54 972.7
20260510005032 83 136 2.0 5.0 0.00 0.00 0.00 53 972.6
20260510004029 83 127 4.0 8.0 0.00 0.00 0.00 51 972.5
20260510003027 84 152 5.0 9.0 0.00 0.00 0.00 49 972.5
20260510002528 84 145 6.0 10.0 0.00 0.00 0.00 49 972.4
20260510002027 85 152 6.0 10.0 0.00 0.00 0.00 48 972.4
20260510000526 85 149 5.0 11.0 0.00 0.00 0.00 47 972.3
20260509235026 86 141 7.0 11.0 0.00 0.00 0.00 46 972.4
20260509234522 87 149 6.0 12.0 0.00 0.00 0.00 46 972.4
20260509234022 87 136 5.0 12.0 0.00 0.00 0.00 46 972.5
20260509233521 87 143 5.0 11.0 0.00 0.00 0.00 46 972.5
20260509233022 87 163 5.0 11.0 0.00 0.00 0.00 46 972.5
20260509232522 87 161 4.0 11.0 0.00 0.00 0.00 45 972.5
20260509232021 88 152 4.0 11.0 0.00 0.00 0.00 45 972.5
20260509231522 88 133 5.0 11.0 0.00 0.00 0.00 45 972.5
20260509231021 88 120 5.0 11.0 0.00 0.00 0.00 45 972.4
20260509230521 88 147 4.0 12.0 0.00 0.00 0.00 45 972.5
20260509230021 88 138 5.0 12.0 0.00 0.00 0.00 45 972.6
20260509225522 88 120 6.0 12.0 0.00 0.00 0.00 46 972.6
20260509225021 88 150 5.0 12.0 0.00 0.00 0.00 45 972.7
20260509224021 88 174 5.0 10.0 0.00 0.00 0.00 42 972.6
20260509223522 89 163 4.0 8.0 0.00 0.00 0.00 43 972.6
20260509223026 89 160 4.0 10.0 0.00 0.00 0.00 42 972.6
20260509222525 89 153 5.0 10.0 0.00 0.00 0.00 42 972.6
20260509222022 89 147 3.0 10.0 0.00 0.00 0.00 42 972.6
20260509221517 89 90 4.0 10.0 0.00 0.00 0.00 42 972.5
20260509221012 89 98 4.0 10.0 0.00 0.00 0.00 43 972.7
20260509220512 88 123 3.0 9.0 0.00 0.00 0.00 42 972.7
20260509215511 89 103 4.0 9.0 0.00 0.00 0.00 42 972.7
20260509215011 89 134 3.0 9.0 0.00 0.00 0.00 42 972.7
20260509214009 89 115 2.0 9.0 0.00 0.00 0.00 44 972.8
20260509213508 88 87 2.0 8.0 0.00 0.00 0.00 42 972.8
20260509212508 89 149 3.0 7.0 0.00 0.00 0.00 40 973.0
20260509211508 88 150 3.0 8.0 0.00 0.00 0.00 39 973.1
20260509210505 88 117 2.0 8.0 0.00 0.00 0.00 39 973.2
20260509210005 88 355 3.0 8.0 0.00 0.00 0.00 40 973.4
20260509205505 89 108 4.0 9.0 0.00 0.00 0.00 40 973.4
20260509204458 88 165 3.0 7.0 0.00 0.00 0.00 41 973.6
20260509203951 88 119 3.0 9.0 0.00 0.00 0.00 41 973.7
20260509203444 87 128 4.0 10.0 0.00 0.00 0.00 42 973.7
20260509202938 88 94 2.0 10.0 0.00 0.00 0.00 43 973.8
20260509202433 88 96 2.0 6.0 0.00 0.00 0.00 43 973.8
20260509201927 87 93 3.0 7.0 0.00 0.00 0.00 41 973.9
20260509200914 88 167 3.0 10.0 0.00 0.00 0.00 42 974.0
20260509200408 88 136 4.0 10.0 0.00 0.00 0.00 45 974.1
20260509195356 87 71 3.0 9.0 0.00 0.00 0.00 44 974.1
20260509194345 87 84 2.0 10.0 0.00 0.00 0.00 46 974.3
20260509193839 88 78 2.0 10.0 0.00 0.00 0.00 43 974.3
20260509193333 87 101 3.0 10.0 0.00 0.00 0.00 46 974.3
20260509192320 87 128 4.0 8.0 0.00 0.00 0.00 46 974.4